U.S. Alerts
El Dorado Weather Logo
U.S. Radar Loop Conditions Map

U.S. Color Satellite North America Color Infrared Animated Satellite Loop

Interactive Wx Map Live U.S. Google Map Radar Thumbnail Image

US Precipitation 1 day, 24 hour precipitation map

US Temperatures US Conditions Map

US Climate Data US Conditions Map


NOAA NWS Hourly Roundups by Site
Regional Weather Roundup for Sacramento, CA
Select Site:  

361
ASUS46 KSTO 171915
RWRCA

NORTHERN AND CENTRAL CA REGIONAL WEATHER ROUNDUP
NATIONAL WEATHER SERVICE SACRAMENTO CA
1200 PM PDT WED JUL 17 2024

NOTE: FAIR INDICATES FEW OR NO CLOUDS BELOW 12,000 FEET WITH NO
SIGNIFICANT WEATHER AND/OR OBSTRUCTIONS TO VISIBILITY.

CAZ001-003-172000-
NORTHWEST AREA

CITY           SKY/WX    TMP DP  RH WIND       PRES   REMARKS
CRESCENT CITY  CLOUDY    63  54  72 S6        30.12R
UKIAH          SUNNY     83  53  35 NW5       30.02F
$$

CAZ006-505>513-172000-
BAY AREA

CITY           SKY/WX    TMP DP  RH WIND       PRES   REMARKS
SANTA ROSA     SUNNY     73  56  54 CALM      30.04F
SAN RAFAEL     N/A       76  MM  MM MISG
NAPA           SUNNY     71  56  58 S12       30.04S
CONCORD        SUNNY     76  55  48 NW13      30.02F
OAKLAND CITY   N/A       62  MM  MM MISG
OAKLAND        PTSUNNY   64  57  78 W8        30.07S
SAN FRAN CITY  N/A       61  MM  76 MISG
SAN FRAN ARPT  MOSUNNY   63  54  72 W16       30.06S
LIVERMORE      SUNNY     73  54  51 W8        30.03F
HAYWARD        PTSUNNY   65  55  70 W8        30.06F
REDWOOD CITY   N/A       67  MM  71 MISG
MOFFETT ARPT   MOSUNNY   64  55  72 N8        30.06S
SAN JOSE ARPT  MOSUNNY   70  55  59 NW8       30.05F
$$
CAZ034-037-514>518-172000-
CENTRAL COAST

CITY           SKY/WX    TMP DP  RH WIND       PRES   REMARKS
WATSONVILLE    SUNNY     71  56  58 SW6       30.04S
SALINAS        SUNNY     73  54  51 VRB6      30.02F
MONTEREY       SUNNY     64  53  67 VRB7      30.05S
SAN LUIS OBISP SUNNY     76  56  49 VRB3      30.01S
SANTA MARIA    SUNNY     72  58  61 NW9       30.03R
HALF MOON BAY  PTSUNNY   61  59  94 N13G18    30.08S
$$
CAZ015-016-172000-
NORTHERN SACRAMENTO VALLEY

CITY           SKY/WX    TMP DP  RH WIND       PRES   REMARKS
REDDING        SUNNY     86  44  23 NW5       29.99F
RED BLUFF      SUNNY     85  46  25 NW3       30.00F
OROVILLE       SUNNY     80  54  40 VRB3      30.02F
$$
CAZ016>018-172000-
SOUTHERN SACRAMENTO VALLEY

CITY           SKY/WX    TMP DP  RH WIND       PRES   REMARKS
AUBURN         SUNNY     82  45  26 VRB6      30.05S
BEALE AFB      SUNNY     78  52  40 SW7       30.00S
LINCOLN        SUNNY     77  50  38 SW3       30.00F
MARYSVILLE     SUNNY     79  53  40 VRB5      30.01F
SAC INTL ARPT  SUNNY     76  54  46 VRB3      30.00F
MATHER AIRPORT SUNNY     79  50  36 VRB5      29.99F
DOWNTOWN SAC   N/A       79  MM  MM MISG
SAC EXEC ARPT  SUNNY     76  53  44 CALM      30.01S
TRAVIS AFB     SUNNY     77  51  40 SW10      30.00S
$$
CAZ019>021-172000-
SAN JOAQUIN VALLEY

CITY           SKY/WX    TMP DP  RH WIND       PRES   REMARKS
STOCKTON       SUNNY     79  53  40 W8G17     30.01F
MODESTO        SUNNY     79  52  38 N7        30.00F
MERCED         SUNNY     83  49  30 NW12G17   29.99F
LEMOORE        MOSUNNY   88  51  28 NW8       29.99F
FRESNO         MOSUNNY   84  54  35 VRB7      29.99F
HANFORD        SUNNY     85  51  31 VRB7      29.99F
PORTERVILLE    SUNNY     86  57  37 SW7       30.00F
BAKERSFIELD    SUNNY     88  53  30 SW7       29.98F
$$
CAZ011-012-071-172000-
NORTHERN MOUNTAINS

CITY           SKY/WX    TMP DP  RH WIND       PRES   REMARKS
YREKA          SUNNY     88  27  11 W7        30.05F
MOUNT SHASTA   SUNNY     83  33  16 VRB5      30.12R
ALTURAS        SUNNY     86  22   9 S14G22    30.14F
$$
CAZ011-012-071-172000-
SIERRA NEVADA MTNS

CITY           SKY/WX    TMP DP  RH WIND       PRES   REMARKS
BLUE CANYON    SUNNY     77  30  17 S7        30.27S
TRUCKEE        SUNNY     79  28  15 SW10G24   30.29F
TAHOE VLY ARPT SUNNY     75  44  33 MISG      30.29S
MAMMOTH LAKES  SUNNY     82  28  14 N5        30.33F
$$



 

View Past Reports for Sacramento, CA.

Products Courtesy of NOAA-NWS
NWS Information Parsing Script by Ken True at Saratoga Weather - Script by SE Lincoln Weather.



Contact Us Contact Us Thumbnail | Mobile Mobile Phone Thumbnail
Private Policy | Terms & Conds | Consent Preferences | Cookie Policy
Never base any life decisions on weather information from this site or anywhere over the Internet.
Site is dedicated to our Lord & Savior Jesus Christ | Random Quotes of Jesus

Copyright © 2024 El Dorado Weather, Inc. | Site Designed By:  Webmaster Danny